Погода в Никити

Греция     40°13′23″N   23°40′08″E
темп.,
°C
ветер,
м/с
пор.,
м/с
влажн.,
%
обл.,
%
осадки,
мм/ч
давл.,
гПа
погр.,
м
24 июня, чт
чт2400:00+26св33750 0.0 101621
03:00+25с11760 0.0 101611
06:00+25ссз01780 0.0 101611
09:00+26в00760 0.0 101683
12:00+26вюв22690 0.0 1016214
15:00+27ю22690 0.0 1015192
18:00+28в33670 0.0 1014134
21:00+26ссз337451 0.0 101544
25 июня, пт
пт2500:00+26юз1175100 0.0 101511
03:00+25зюз458062 0.0 101464
06:00+25зсз1174100 0.0 101311
09:00+26св22690 0.0 101484
12:00+28юз22610 0.0 1014204
15:00+29ююз12570 0.0 1013213
18:00+29в12600 0.0 1012144
21:00+28ссз236654 0.0 101256
26 июня, сб
сб2600:00+26зюз22681 0.0 101216
03:00+26зюз22700 0.0 101113
06:00+26з33670 0.0 101124
09:00+27всв23630 0.0 101281
12:00+28всв33630 0.0 1012144
15:00+27вюв44670 0.0 1011167
18:00+28юз476598 0.0 1011268
21:00+26всв33745 0.0 101037
27 июня, вс
вс2700:00+26св45742 0.0 1011100
03:00+25св22740 0.0 101116
06:00+25всв22760 0.0 101220
09:00+26в22720 0.0 1012153
12:00+26в33700 0.0 1013245
15:00+26ююв22680 0.0 1013269
18:00+26вюв22680 0.0 1012169
21:00+25св23740 0.0 101294
28 июня, пн
пн2800:00+25ссв22720 0.0 101412
03:00+25св23710 0.3 101426
06:00+25св33730 0.1 101454
09:00+26всв22680 0.2 1015130
12:00+27вюв12620 0.0 1015239
15:00+28вюв22630 0.1 1015288
18:00+27ююз227167 0.1 101378
21:00+26ссв22720 0.1 101421